Regional Weather Roundup
Issued by NWS

Home | Current Version | Previous Version | Text Only | Print | Product List | Glossary On
Versions: 1 2 3 4 5 6 7 8 9 10 11 12 13 14 15 16 17 18 19 20 21 22 23 24 25 26 27 28 29 30 31 32 33 34 35 36 37 38 39 40 41 42 43 44 45 46 47 48 49 50
000
ASUS45 KBOU 111707
RWRCO

WEATHER ROUNDUP FOR COLORADO
NATIONAL WEATHER SERVICE DENVER/BOULDER CO
1000 AM MST THU FEB 11 2016

NOTE: "FAIR" INDICATES FEW OR NO CLOUDS BELOW 12000 FEET WITH NO
SIGNIFICANT WEATHER AND/OR OBSTRUCTIONS TO VISIBILITY.

COZ001>005-013-030-031-111800-
...NORTHWEST COLORADO...

CITY           SKY/WX    TMP DP  RH WIND       PRES   REMARKS
CRAIG          CLOUDY    11   9  92 SW3       30.41F
HAYDEN         CLOUDY    23  12  63 SE12      30.40S WCI  12
MEEKER         CLOUDY    22  13  68 NW3       30.42S
MOUNT WERNER   NOT AVBL
STEAMBOAT SPGS CLOUDY    15   9  79 CALM      30.42S
WALDEN         CLOUDY    32  16  51 SE9G17    30.35R WCI  24
$$

COZ006>008-011-111800-
...WEST CENTRAL VALLEYS...

CITY           SKY/WX    TMP DP  RH WIND       PRES   REMARKS
GRAND JUNCTION CLOUDY    33  22  63 S7        30.44F WCI  27
MONTROSE       CLOUDY    33  17  51 CALM      30.47S
EAGLE          NOT AVBL
RIFLE          CLOUDY    23  14  68 CALM      30.46F
DELTA          CLOUDY    35  23  60 CALM      30.47S
NUCLA          CLOUDY    32  18  55 CALM      30.48R
$$

COZ017>023-064>068-111800-
...SOUTHWEST COLORADO...

CITY           SKY/WX    TMP DP  RH WIND       PRES   REMARKS
DURANGO        CLOUDY    28  17  63 E6        30.40S WCI  22
CORTEZ         CLOUDY    35  17  47 CALM      30.42S
PAGOSA SPRINGS CLOUDY    34   8  33 CALM      30.41S
TELLURIDE      CLOUDY    35   8  32 SE5       30.48S WCI  31
WOLF CREEK PAS CLOUDY    34  -6  18 N13       30.54R WCI  25
$$

COZ009-010-012-014-032>034-037-058>063-111800-
...CENTRAL COLORADO...

CITY           SKY/WX    TMP DP  RH WIND       PRES   REMARKS
ASPEN          CLOUDY    33  15  47 N5        30.42S WCI  29
BUENA VISTA    CLOUDY    36  16  42 CALM      30.33F
COPPER MTN     CLOUDY    30   3  31 W6        30.49R WCI  24
BERTHOUD PASS  FAIR      21  12  68 NW40G48   30.40F WCI   1
COTTONWOOD PAS CLOUDY    43  -6  13 E9G17     30.36F
GUNNISON       CLOUDY    -8 -26  41 CALM      30.58R
KREMMLING      CLOUDY     3  -4  72 CALM      30.49R
LEADVILLE      CLOUDY    35   5  28 NW9       30.41R WCI  28
MONARCH PASS   CLOUDY    27   3  36 W49G55    30.51S WCI   7
SALIDA         NOT AVBL
SUNLIGHT       CLOUDY    34   9  35 CALM        N/A
WILKERSON PASS CLOUDY    34  -6  18 CALM      30.42R
$$

COZ069>075-111800-
...SAN LUIS VALLEY/SANGRE DE CRISTO MOUNTAINS...

CITY           SKY/WX    TMP DP  RH WIND       PRES   REMARKS
ALAMOSA        CLOUDY    32  16  51 CALM      30.41S
LA VETA PASS   CLOUDY    36   5  27 S13G23    30.38F
SAGUACHE       CLOUDY    37  12  35 NW5       30.41R
$$

COZ035-036-038>040-111800-
...NORTHERN COLORADO FRONT RANGE...

CITY           SKY/WX    TMP DP  RH WIND       PRES   REMARKS
DENVER INTL AP CLOUDY    51  18  27 SW12      30.13F
DMNS CITY PARK   N/A     54  18  24 SW5       30.15S
AURORA         NOT AVBL
FRONT RANGE AP PTSUNNY   48  19  32 MISG      30.15F
ERIE MUNI ARPT CLOUDY    51  23  33 CALM      30.13F
BOULDER MUN AP CLOUDY    59  14  17 NW10G21   30.13F
CENTENNIAL     CLOUDY    52  18  26 W7        30.17S
BROOMFIELD     PTSUNNY   59  10  14 W8        30.16S
FORT COLLINS   CLOUDY    37  25  60 CALM      30.14R
LONGMONT       CLOUDY    48  24  39 SW3       30.14F
$$

COZ041-046-047-076>085-087-088-111800-
...PIKES PEAK/PALMER DIVIDE AND SOUTHERN FOOTHILLS...

CITY           SKY/WX    TMP DP  RH WIND       PRES   REMARKS
COLO. SPRINGS  CLOUDY    47  14  26 CALM      30.21S
A. F. ACADEMY  NOT AVBL
SCHRIEVER AFB  NOT AVBL
ELLICOTT       LGT RAIN N/A N/A N/A CALM      30.20R
FALCON         NOT AVBL
FORT CARSON    MOSUNNY   46  21  37 N6        30.20R
LIMON          CLOUDY    41  23  48 NE3       30.17F
MONUMENT HILL  CLOUDY    46  12  25 SW5       30.23S
TRINIDAD       SUNNY     55  10  16 S7        30.23F
$$

COZ042>045-048>051-090-091-111800-
...NORTHEAST COLORADO...

CITY           SKY/WX    TMP DP  RH WIND       PRES   REMARKS
GREELEY ARPT   CLOUDY    34  27  75 CALM      30.15R
AKRON          CLOUDY    45  25  45 W12       30.11S
BURLINGTON     CLOUDY    44  27  51 SW12      30.14S
WRAY           NOT AVBL
STERLING       CLOUDY    41  28  60 SW7       30.12S
HOLYOKE        MOSUNNY   45  32  61 W10       30.09F
FORT MORGAN    CLOUDY    41  23  47 W5        30.13S
$$

COZ086-089-092>099-111800-
...SOUTHEAST COLORADO...

CITY           SKY/WX    TMP DP  RH WIND       PRES   REMARKS
PUEBLO         SUNNY     50  23  34 CALM      30.19S
LA JUNTA       SUNNY     49  23  36 W7        30.19S
LAMAR          SUNNY     50  27  40 W8        30.17F
SPRINGFIELD      N/A     56  21  25 SW9       30.19S
$$



USA.gov is the U.S. government's official web portal to all federal, state and local government web resources and services.